Theta_e
321 320 318 317 316 316 316 315 313 313 313 314 312 311 309 308 307 307 307 307 306 306 306 305 305 306 306 306 306 306 306 306 306 304 303 304 304 304 304 304 304 304 303 303 303 303 303 303 302 302 301 301 301 301 301 301 301 301 300 300 300 300 300 299 299 299 299 299 298
321 320 317 314 313 314 315 314 313 313 313 314 313 311 309 308 308 307 307 307 307 307 306 306 306 306 306 306 306 306 306 306 306 305 304 304 304 304 304 304 304 304 303 303 303 303 303 302 302 301 301 301 301 301 301 302 302 301 300 300 300 300 299 299 299 299 299 298 298
321 319 317 316 316 316 316 315 314 314 314 313 312 311 310 309 308 308 307 307 307 307 307 306 306 306 307 307 307 307 306 306 306 305 304 304 304 303 303 304 303 303 303 303 303 303 302 302 302 301 300 300 301 301 301 301 301 301 300 300 300 300 299 298 299 299 298 298 298
320 319 317 317 317 317 317 315 314 314 314 313 312 311 309 309 309 308 308 308 308 307 307 307 307 306 307 306 307 307 306 305 305 305 304 304 304 303 303 304 303 303 303 304 303 303 303 303 302 301 301 301 301 301 301 301 300 300 300 300 300 299 299 298 299 298 298 298 298
319 318 318 319 319 318 318 317 315 314 313 312 311 310 310 309 309 309 308 308 307 307 307 307 307 307 306 306 307 306 306 305 303 303 304 304 303 303 303 303 303 303 303 303 303 303 303 303 302 302 301 301 301 301 301 301 301 300 300 300 300 299 299 299 299 298 298 298 298
318 319 320 320 320 319 318 317 316 315 313 312 311 310 309 309 309 308 308 307 307 308 307 306 306 305 305 306 306 306 306 305 304 304 304 304 304 303 303 303 303 303 303 303 303 303 303 303 302 301 301 301 301 301 301 301 300 300 300 300 299 299 299 299 298 298 298 297 297
319 319 320 320 319 319 318 317 316 314 314 312 311 310 310 309 309 309 308 308 308 308 307 305 305 305 305 306 306 306 305 305 305 305 304 304 303 303 303 303 303 303 303 303 303 303 303 303 302 301 300 300 300 301 301 301 300 300 300 299 299 299 299 299 299 298 298 297 297
320 320 320 319 319 318 318 317 315 314 313 312 311 311 310 310 309 309 309 308 308 307 306 305 306 306 306 306 305 305 305 305 304 304 304 304 303 303 303 303 303 303 303 303 303 303 303 303 302 301 300 300 300 300 301 301 300 300 300 299 299 299 300 301 301 299 297 297 297
320 320 320 319 319 318 318 316 315 314 313 312 311 311 311 310 309 309 308 308 307 306 306 306 306 306 306 306 305 305 305 304 304 304 304 304 303 303 303 303 303 303 303 303 303 303 303 302 301 301 301 300 300 300 301 301 301 300 300 299 299 299 299 299 299 298 297 297 296
320 320 320 319 319 318 317 316 315 314 313 312 312 311 310 307 308 308 308 307 306 306 306 306 306 306 306 306 305 305 305 304 304 304 303 303 302 302 303 303 303 303 303 303 303 303 302 302 301 301 301 301 301 301 301 302 300 300 299 299 299 298 298 298 298 297 297 296 296
320 320 319 318 318 317 316 315 314 313 312 312 311 310 309 307 308 308 308 307 307 306 306 306 306 306 305 305 305 304 304 304 304 303 303 303 302 302 302 303 303 303 303 303 303 303 302 301 301 301 301 301 301 301 301 301 300 299 299 299 298 298 297 297 297 297 296 296 296
320 319 318 317 317 317 315 314 313 312 311 311 310 310 309 309 309 308 307 307 307 306 306 306 306 305 305 304 304 304 304 304 303 303 302 302 302 302 303 303 303 303 302 303 303 302 302 301 301 300 300 300 301 301 301 300 299 298 298 298 298 297 297 297 297 296 297 296 297
319 318 317 316 316 315 314 313 312 311 310 309 309 308 308 308 308 307 307 307 306 306 306 306 305 305 304 304 304 304 303 303 302 302 302 302 302 302 303 303 303 302 302 302 303 302 301 301 300 300 300 300 300 300 300 299 299 298 298 297 297 297 297 297 297 297 297 297 297
319 317 316 315 314 313 312 311 311 310 309 308 308 308 308 308 308 307 307 307 307 306 306 305 304 304 303 303 303 303 303 303 302 302 302 302 302 302 302 302 302 302 302 302 303 302 301 300 300 300 300 300 300 300 300 300 299 298 298 298 297 297 297 298 298 298 297 297 297
317 316 315 314 313 312 311 310 310 309 308 307 308 308 308 308 307 307 307 307 306 306 306 305 304 303 303 304 303 303 303 303 302 302 302 302 302 302 302 301 301 301 302 302 302 302 301 300 300 300 300 300 300 300 299 299 299 299 298 298 298 298 298 298 298 298 298 297 297
315 314 313 312 311 311 310 310 310 309 308 307 308 308 308 308 308 307 306 306 306 306 305 304 303 303 303 303 303 303 303 302 302 301 301 301 301 301 301 301 301 301 301 301 301 302 301 301 301 300 300 300 299 299 299 299 299 299 299 299 299 299 298 298 298 298 298 297 295
314 313 312 311 311 311 310 309 308 308 307 308 308 309 308 308 307 306 305 305 305 304 303 302 302 303 303 303 303 303 302 301 300 300 300 300 301 300 301 301 301 301 301 300 300 300 300 301 301 301 301 300 300 299 299 299 299 299 299 299 299 299 299 298 298 298 297 295 294
312 312 312 311 311 310 309 308 307 307 307 309 309 309 308 307 306 305 304 304 304 303 302 302 302 303 303 303 303 302 300 299 299 299 300 300 300 300 301 301 300 300 300 300 300 299 299 299 300 300 301 301 300 300 300 299 299 299 299 299 299 299 299 298 297 297 295 294 292
311 311 311 311 311 309 308 306 307 307 308 309 309 308 306 305 304 304 304 303 302 302 302 303 303 303 302 302 301 300 299 299 299 299 300 301 301 301 300 300 300 300 300 300 299 299 299 299 300 300 300 300 300 300 300 299 299 299 299 299 299 299 298 298 297 296 294 293 292
310 311 310 310 309 307 306 306 308 309 310 310 308 306 304 303 302 302 302 302 302 302 303 303 303 302 301 300 300 299 299 299 300 300 300 301 301 301 300 300 300 300 300 299 299 299 299 299 300 300 299 299 299 299 299 299 299 299 299 299 299 298 298 297 295 294 293 292 291
310 310 310 308 307 307 307 309 310 311 310 309 307 305 303 301 301 301 302 302 303 303 303 303 302 301 300 299 299 298 299 299 300 300 300 301 300 300 300 300 300 299 299 299 298 299 299 299 299 299 299 299 299 299 299 299 298 298 299 299 298 298 297 296 294 293 292 291 291
308 308 307 306 307 307 309 310 309 309 308 308 306 303 302 301 301 302 303 303 303 303 302 302 301 300 299 299 299 299 299 300 300 300 300 300 300 300 300 300 299 299 298 298 298 298 298 299 299 299 299 299 299 299 298 298 298 298 298 298 298 297 295 294 293 292 291 291 291
306 306 306 307 308 308 309 308 308 307 307 306 305 303 301 301 302 303 303 303 302 302 301 301 300 300 299 299 299 300 300 300 300 300 300 300 300 300 300 300 299 298 298 298 298 298 298 299 299 299 299 299 298 298 298 298 298 298 298 298 297 296 294 293 293 292 291 291 291
305 306 307 308 309 308 308 307 306 305 305 304 303 302 301 302 302 302 302 302 302 301 301 300 300 300 300 300 300 300 300 299 299 299 299 300 300 299 299 299 298 298 298 299 298 298 298 298 299 298 298 298 298 298 298 298 298 298 297 297 296 295 294 293 292 291 291 291 291
306 307 308 308 307 307 306 305 304 303 303 303 302 301 300 301 301 301 301 301 301 301 300 299 299 300 301 301 301 300 300 299 299 298 299 299 299 299 299 298 298 298 298 298 296 295 294 295 297 297 298 297 298 298 298 299 298 298 298 297 296 295 294 292 292 291 291 291 291
307 307 306 306 305 304 304 304 303 302 302 302 301 300 300 301 301 301 301 300 300 300 299 299 299 300 300 301 301 300 300 299 299 299 298 298 298 298 298 297 298 298 298 297 293 292 292 293 293 295 296 298 298 298 298 298 298 298 297 297 296 295 294 292 292 291 291 291 291
306 305 304 304 303 303 303 303 302 301 301 301 300 300 300 301 300 300 300 300 299 299 299 299 300 299 299 300 300 300 299 299 299 299 298 298 297 297 297 297 297 298 298 295 292 290 291 291 291 293 295 298 299 298 298 298 298 298 297 296 296 295 294 293 292 291 291 291 291
305 304 303 302 302 301 301 302 301 300 300 300 300 301 301 300 300 300 299 299 299 298 299 300 300 300 299 299 299 299 299 298 298 298 298 298 298 297 297 297 297 298 297 293 291 290 290 291 291 291 293 295 298 299 298 298 297 297 296 296 295 294 294 293 292 292 291 291 291
304 302 301 301 300 300 300 300 300 300 300 300 301 300 300 299 299 299 299 298 298 298 299 300 300 299 299 299 299 298 298 298 298 298 298 298 297 297 297 296 297 296 294 291 290 290 290 290 290 290 291 293 296 298 298 297 297 296 296 295 295 294 293 292 292 292 291 291 291
302 301 301 300 300 300 300 300 301 301 301 300 300 300 299 299 299 298 298 297 298 299 299 300 299 299 298 298 298 297 297 297 297 297 297 297 297 296 296 296 298 297 294 290 289 290 290 290 290 290 290 290 294 297 298 297 297 296 295 295 294 294 293 292 292 292 291 291 291
303 301 301 300 300 300 300 301 301 301 300 300 299 299 298 298 298 297 298 298 298 299 299 299 299 298 298 297 297 296 296 296 297 297 296 296 295 296 296 297 298 297 294 289 289 289 289 290 290 289 289 289 292 295 297 297 297 296 295 295 294 294 293 292 292 292 291 291 291
303 303 302 301 301 301 301 301 301 300 300 299 299 298 298 298 298 298 298 299 299 299 299 299 298 297 297 296 296 296 296 296 296 296 296 296 296 296 297 297 298 297 294 289 289 289 289 289 289 289 289 288 291 294 297 297 297 296 295 295 294 294 293 292 292 292 292 291 291
303 303 303 302 302 302 302 301 301 300 300 299 299 299 299 299 299 299 299 299 299 298 298 297 297 296 295 296 296 296 296 296 296 295 295 295 296 297 297 297 298 296 293 289 289 289 289 289 289 289 288 287 290 294 296 297 297 296 295 295 294 294 293 293 292 292 292 292 292
303 303 303 303 302 302 302 301 301 301 301 300 300 300 300 299 299 299 299 299 298 298 298 297 297 296 296 296 296 296 295 295 296 296 296 297 297 297 297 297 298 296 293 289 289 289 289 289 289 289 289 287 290 293 295 296 296 296 295 295 295 294 294 293 293 293 292 292 292
303 303 303 302 302 302 301 301 301 301 301 300 300 300 300 300 299 299 298 297 297 297 298 297 297 297 297 297 296 296 296 296 296 297 297 298 298 297 297 297 297 295 291 289 289 289 289 289 289 289 289 288 291 293 295 296 296 295 295 295 294 294 294 293 293 293 293 293 292
303 302 302 302 301 301 301 301 301 301 301 301 301 301 300 300 299 299 298 296 297 297 298 298 297 297 297 296 296 296 296 297 297 297 298 298 298 297 297 297 297 294 291 289 289 289 289 289 289 289 289 290 292 293 294 295 295 295 295 294 294 294 294 294 293 293 293 293 293
303 302 302 302 301 301 301 301 301 301 301 301 301 301 301 300 299 299 298 297 297 297 297 297 297 296 295 295 296 296 296 297 298 298 298 297 297 297 297 296 297 295 292 290 289 289 289 289 289 289 290 291 293 294 294 295 295 294 294 294 294 294 294 294 293 293 293 293 292
302 302 302 302 301 301 301 301 301 301 301 301 301 301 301 300 299 299 298 296 297 297 297 297 296 295 295 296 296 297 297 298 298 298 298 298 297 297 296 296 296 296 294 290 289 289 289 289 289 289 290 292 294 294 295 295 295 294 294 294 294 294 294 293 293 293 292 292 290
302 302 302 301 301 301 301 302 302 302 301 301 301 301 300 300 300 299 298 297 299 299 298 297 296 296 296 296 296 297 298 298 298 297 298 298 297 297 296 296 296 296 294 291 289 289 289 290 289 289 290 292 294 295 295 295 294 294 294 293 293 293 293 293 293 292 292 292 290
302 302 302 302 302 302 301 301 301 302 302 301 301 301 300 300 299 299 299 298 299 299 298 297 296 296 296 295 296 297 297 297 298 298 298 297 297 296 295 296 297 296 295 291 290 289 289 289 289 289 290 292 294 295 295 295 294 294 293 293 293 293 293 293 293 292 292 291 290
302 302 302 302 302 302 301 301 302 302 302 302 301 301 300 299 299 299 299 298 298 297 297 296 296 297 296 295 296 296 296 296 297 297 297 297 297 296 295 297 297 297 296 294 291 290 289 289 290 289 290 291 294 295 295 295 294 293 293 293 293 293 292 292 292 292 292 291 291
Wind_Speed
12 10 9 8 7 7 7 7 7 7 8 8 8 8 8 8 8 8 8 7 7 7 7 8 8 8 10 12 12 12 11 11 11 11 10 10 10 10 10 10 10 10 9 9 8 7 6 6 5 4 3 2 3 3 3 2 2 2 2 2 2 1 1 2 2 2 3 3 3
13 12 10 9 8 7 7 7 7 7 8 8 8 8 8 8 8 8 8 8 8 7 8 8 9 10 11 13 13 12 12 12 12 12 11 11 10 10 10 10 10 10 9 9 8 6 5 5 4 3 3 3 3 3 3 3 3 3 3 3 2 1 1 2 2 2 3 3 3
13 12 11 10 10 9 8 8 8 9 9 8 8 8 8 8 8 8 8 9 9 9 9 8 9 11 13 14 13 12 12 12 12 12 11 10 11 11 10 10 10 10 9 8 7 6 5 5 4 3 3 3 3 3 3 4 3 3 3 3 2 2 2 2 2 2 2 3 3
13 12 11 11 12 12 10 8 9 10 10 8 8 9 9 8 8 8 9 10 10 10 9 9 10 11 13 13 13 13 12 12 12 12 11 10 11 11 11 10 10 10 9 8 7 6 6 5 4 3 3 3 3 3 3 3 3 3 3 2 2 2 2 2 2 2 2 2 3
13 12 11 10 13 13 11 10 11 11 10 8 8 8 8 8 8 8 9 10 10 10 10 11 11 11 12 13 14 13 13 13 12 11 10 11 11 11 10 10 10 10 9 8 8 7 6 6 4 3 3 4 3 3 3 3 3 3 3 2 2 2 2 2 2 2 2 2 2
13 13 12 11 13 13 11 10 12 12 10 9 10 10 10 9 9 9 10 10 10 11 12 13 11 11 12 13 13 13 12 12 11 10 10 11 10 10 11 11 10 9 9 8 8 8 7 6 4 3 3 3 3 3 3 3 3 3 3 3 3 3 3 3 2 2 2 3 3
14 14 14 13 14 13 12 11 12 12 11 10 12 13 12 11 11 12 12 11 11 11 12 11 11 11 12 13 12 12 12 11 11 11 11 10 10 10 10 10 10 10 9 9 8 8 7 6 4 4 3 3 3 3 4 4 3 3 3 3 3 2 2 3 2 2 3 4 4
14 15 14 15 15 15 14 13 13 12 12 10 12 14 14 13 14 14 13 12 11 11 11 10 12 12 13 13 12 12 12 12 11 11 10 10 10 11 11 10 10 10 9 9 9 8 7 6 4 4 4 4 3 4 4 5 5 4 4 4 3 3 2 2 2 3 4 5 5
14 14 14 14 15 15 15 14 14 13 12 12 13 14 14 14 15 14 13 12 11 11 11 10 13 14 14 13 13 12 12 11 11 11 10 10 10 11 10 10 10 10 9 9 9 9 8 6 5 4 4 4 4 4 4 5 6 6 5 5 4 4 4 4 4 5 5 5 5
14 14 14 14 14 15 14 14 14 14 13 12 13 14 14 13 14 14 12 11 11 12 12 12 13 14 14 14 13 12 12 11 11 10 10 10 10 11 10 9 10 9 9 8 8 8 8 6 6 5 5 5 5 5 5 6 6 7 6 4 4 5 5 5 5 5 5 5 5
14 14 14 13 14 14 14 13 13 12 12 12 13 13 13 13 13 13 12 11 12 13 13 13 14 15 15 14 13 12 11 10 10 10 10 10 11 11 10 9 9 9 9 8 8 7 7 6 6 6 6 6 5 5 6 7 7 7 7 5 5 6 6 6 6 5 5 5 5
14 14 13 13 14 14 13 13 11 11 11 11 12 13 13 12 13 13 12 13 13 14 14 14 15 15 14 12 12 12 11 10 10 10 10 11 11 11 10 9 9 9 9 9 8 7 7 7 7 7 7 7 5 5 6 7 7 8 8 7 7 7 7 6 6 5 4 4 4
13 13 13 13 14 14 13 12 11 10 11 11 12 12 11 11 12 13 13 14 14 13 13 13 14 14 13 11 11 11 10 10 10 10 9 10 10 10 10 9 9 9 9 9 8 7 7 7 8 8 8 7 6 5 6 7 8 8 8 8 8 7 7 6 6 5 5 4 5
13 13 13 13 14 13 12 12 10 10 10 11 11 11 11 11 12 12 12 13 13 13 12 13 12 11 11 11 11 10 10 10 10 9 9 9 9 9 9 9 9 9 9 8 8 8 8 8 8 8 8 7 7 6 7 7 8 8 8 8 8 7 7 6 6 5 5 5 5
13 13 13 14 14 13 12 12 10 9 10 11 11 10 10 10 11 11 11 12 12 12 11 11 10 10 10 11 11 11 10 9 9 9 9 9 9 9 9 9 10 10 9 8 8 8 9 9 9 8 8 7 7 7 8 8 9 8 8 8 7 7 7 6 6 6 6 6 6
13 14 14 14 14 13 12 11 9 9 9 10 10 10 11 10 11 11 11 12 11 10 10 11 10 10 10 10 11 11 10 9 9 9 9 8 8 9 10 10 10 10 9 9 9 8 9 9 8 8 8 8 8 8 8 9 9 9 8 8 7 7 7 7 6 6 6 6 6
14 14 14 15 15 14 13 11 9 9 10 11 12 12 11 11 10 11 11 11 10 10 10 11 10 10 10 10 10 10 9 9 9 8 8 8 9 10 10 11 10 10 9 9 9 9 9 9 8 8 8 8 8 8 8 9 9 9 8 8 7 7 7 7 6 6 5 5 6
14 14 15 15 15 15 14 13 12 12 13 14 14 14 13 12 12 12 12 11 10 11 11 12 11 10 10 10 9 8 8 8 8 8 8 8 9 10 11 10 10 9 9 9 9 9 9 9 9 8 8 8 8 8 8 8 8 8 8 8 8 7 7 7 6 5 5 5 5
14 14 15 15 15 15 14 14 14 14 14 15 15 15 15 14 14 13 13 12 12 12 13 13 12 11 10 10 9 8 7 8 8 8 9 9 10 10 10 10 9 9 8 8 8 8 8 8 8 8 8 8 8 8 8 8 8 8 8 8 8 8 7 6 6 5 5 5 5
13 12 12 13 13 13 13 13 13 13 13 14 15 16 16 16 15 15 15 14 14 14 14 14 12 11 11 10 10 9 8 7 8 9 10 10 10 10 9 9 8 8 8 8 8 8 8 8 8 8 8 9 9 9 8 8 8 9 9 8 8 8 7 7 6 6 6 5 5
11 10 9 10 10 11 11 11 12 12 13 14 15 16 16 16 16 16 16 16 15 14 14 13 13 12 12 11 11 10 9 7 8 9 9 9 9 9 8 8 7 7 7 8 8 8 8 8 8 8 8 8 9 9 8 9 9 10 9 8 8 8 8 7 7 7 6 6 6
8 8 7 8 9 10 11 12 12 12 12 14 14 15 15 15 15 15 15 15 14 14 13 13 13 12 12 12 11 10 9 8 8 9 9 9 8 8 7 6 7 7 8 8 8 8 8 8 8 8 8 8 9 9 9 9 10 10 10 9 9 8 8 8 7 7 7 6 6
7 7 7 8 10 12 13 13 12 12 12 13 14 14 14 14 14 14 14 13 13 13 13 12 12 12 12 12 11 11 10 9 9 9 9 8 8 7 7 6 7 8 8 8 8 8 8 7 8 8 8 8 9 10 10 10 10 10 10 9 9 9 8 8 8 7 7 7 6
8 8 8 8 11 13 12 11 11 11 12 13 13 13 14 14 14 13 13 13 13 13 13 11 10 11 11 11 11 11 11 10 10 9 9 8 8 7 7 6 7 7 7 6 6 6 6 6 7 8 8 9 9 10 10 10 10 10 9 9 9 9 8 8 8 8 7 7 7
11 11 11 11 12 11 10 11 11 12 12 13 13 13 13 14 13 13 13 13 13 13 13 11 11 10 10 10 10 10 10 10 10 10 9 8 8 7 7 7 7 7 6 5 5 5 6 6 6 7 8 8 9 9 9 10 10 9 9 8 8 8 8 9 9 8 8 8 7
13 14 13 13 11 11 11 11 12 12 13 13 13 13 13 14 13 13 13 13 13 12 12 11 11 9 8 8 9 9 9 9 9 9 9 8 8 8 8 7 6 6 5 5 5 6 6 6 6 6 7 8 8 8 8 9 9 9 9 8 8 8 8 9 9 9 9 9 8
14 14 14 13 12 12 12 12 12 12 12 12 13 13 14 13 13 13 13 13 13 12 11 10 10 8 7 8 9 9 9 8 8 8 8 8 8 9 8 7 6 5 5 5 6 7 8 7 7 6 7 8 8 8 8 8 8 9 9 9 9 9 9 9 10 10 9 9 9
13 14 14 14 14 14 13 13 13 12 12 12 13 13 13 13 13 13 13 13 12 11 10 9 8 7 7 7 8 9 8 8 7 7 7 8 8 9 8 8 7 6 6 7 8 9 9 9 8 8 7 8 7 7 7 8 8 8 9 9 9 10 10 10 10 9 9 10 10
13 13 14 15 15 15 14 13 13 13 13 13 13 13 13 13 13 13 13 12 12 11 9 8 7 6 6 7 8 8 8 7 6 6 7 7 8 8 8 8 8 7 7 9 10 11 11 11 10 9 8 8 7 7 7 7 7 8 8 8 9 10 10 10 9 9 9 9 10
13 12 13 14 14 15 14 14 14 13 13 12 12 12 13 13 13 13 12 12 12 11 9 7 7 7 7 8 7 7 7 7 6 6 7 8 8 8 8 9 9 8 8 11 12 12 13 12 12 11 10 9 8 8 7 7 8 8 8 8 9 10 11 11 11 10 10 9 9
13 13 12 13 14 14 14 14 13 13 12 11 12 12 12 12 12 12 12 12 11 10 9 8 9 9 8 7 7 7 7 7 7 7 7 8 8 9 10 10 11 9 8 12 13 13 13 14 13 12 11 10 9 8 8 8 8 8 8 8 10 11 11 11 11 11 11 11 10
13 13 13 13 13 14 14 13 13 12 12 12 12 12 12 12 12 11 11 11 10 10 9 9 9 9 8 7 7 7 7 7 7 7 7 8 8 10 11 11 12 10 8 13 13 14 14 14 14 14 13 12 10 10 10 9 9 9 9 10 11 11 11 10 10 11 12 12 11
13 13 13 13 13 13 13 13 12 12 12 12 12 12 12 12 11 11 10 10 9 9 9 9 9 8 8 8 7 7 7 7 7 8 8 8 9 11 11 11 12 9 8 13 14 14 14 15 15 14 14 13 11 11 11 11 10 9 9 10 11 12 12 12 11 11 12 12 11
12 13 13 13 13 12 12 13 13 12 12 12 12 12 12 12 11 11 10 9 8 8 8 8 8 8 7 7 7 7 7 7 7 8 9 10 11 12 12 11 9 6 8 14 14 14 14 15 15 15 14 13 11 11 11 12 11 10 10 11 11 12 12 12 13 12 12 12 11
12 12 12 12 12 12 12 13 13 13 12 12 12 12 12 11 11 10 9 8 8 7 7 7 6 6 6 6 6 7 7 7 8 9 10 11 11 12 12 12 10 6 8 14 14 14 15 15 15 14 14 12 10 10 11 13 12 12 12 12 12 12 13 13 12 12 12 13 12
11 12 12 12 12 12 12 13 13 13 12 12 12 12 12 11 10 9 9 8 8 7 7 6 5 5 5 6 6 6 7 8 9 9 10 11 11 12 12 13 11 7 9 14 14 15 15 15 15 14 13 11 10 10 11 11 11 12 13 13 13 13 13 13 12 12 12 12 12
11 11 11 11 12 12 12 12 12 12 12 12 12 12 11 11 10 9 8 8 7 7 6 6 5 6 6 6 6 7 8 9 9 10 10 10 11 12 12 13 12 9 9 13 14 15 15 15 15 14 13 11 10 10 10 10 10 10 12 13 13 13 13 12 12 12 12 12 12
10 10 11 11 11 12 12 12 12 12 12 12 12 11 11 10 9 8 8 7 7 7 6 6 6 6 7 7 7 8 9 9 10 10 10 11 11 12 12 13 13 10 8 12 14 15 15 15 15 15 13 11 11 11 10 9 9 10 10 11 11 12 12 11 10 10 11 13 13
10 10 11 11 11 12 12 12 12 12 12 11 11 11 10 9 8 7 7 6 6 6 6 6 6 7 7 7 7 8 9 10 10 10 10 11 11 11 12 12 13 11 9 10 13 15 15 16 16 16 15 12 12 11 10 9 10 10 10 10 10 11 11 11 9 9 10 12 13
9 10 10 11 11 11 12 12 11 11 10 10 10 10 9 8 7 6 6 5 4 4 4 5 6 6 6 6 7 8 9 10 10 10 10 11 11 11 11 12 13 12 10 9 13 15 16 16 16 17 16 13 12 11 10 9 10 10 11 10 9 9 10 10 9 9 10 11 12
9 10 10 11 11 11 11 11 11 10 9 9 9 8 7 6 6 5 5 4 3 3 3 4 5 6 6 5 6 7 9 10 10 11 11 11 11 11 11 11 12 13 12 9 12 14 16 16 17 17 17 13 12 11 10 9 10 11 11 11 10 9 9 9 9 9 10 11 11
Wind_Direction
179 177 175 177 179 180 179 177 178 179 180 181 177 170 165 167 166 165 164 164 164 163 162 163 165 166 167 170 172 174 174 174 174 173 172 170 164 161 159 157 158 159 160 161 162 162 160 153 145 139 137 140 143 143 145 154 183 195 200 205 210 222 241 260 269 278 288 293 297
180 177 174 172 175 177 178 177 178 179 181 181 174 167 164 168 166 165 165 166 166 164 163 164 167 167 168 170 174 175 176 175 174 173 172 170 165 162 161 161 162 162 163 164 165 164 161 155 150 146 145 152 162 160 159 163 191 206 212 214 218 231 251 264 274 285 292 295 299
180 177 174 174 177 179 180 178 178 179 179 176 169 165 164 169 166 166 167 168 168 166 165 166 167 167 168 171 174 176 176 175 174 173 173 170 166 165 165 164 164 165 165 167 168 166 162 158 155 155 159 168 177 174 169 170 189 206 218 221 224 235 250 262 273 283 289 292 294
181 177 176 180 182 182 181 179 176 176 175 171 166 164 165 168 167 167 168 168 169 168 168 167 166 167 169 172 175 176 176 175 174 174 173 170 168 168 168 168 167 167 167 170 171 169 164 163 162 166 174 182 186 183 178 175 191 205 218 224 232 241 248 256 264 272 279 284 288
182 180 180 187 189 187 182 179 175 174 173 167 166 166 167 169 168 169 170 170 171 171 169 167 165 166 169 173 175 175 175 175 174 174 174 171 170 170 171 171 170 169 169 172 172 171 170 171 172 177 183 188 192 192 190 186 198 208 216 221 227 240 249 253 254 258 264 273 276
184 183 185 192 192 188 183 179 175 173 172 169 169 170 170 171 171 172 172 172 171 169 167 166 165 166 168 172 174 174 174 174 176 176 175 172 171 172 174 175 173 172 172 174 174 174 175 181 183 185 189 193 196 199 200 200 211 218 220 221 220 228 238 241 240 244 249 258 263
187 187 187 190 189 186 183 177 175 173 173 172 174 175 174 173 172 173 172 171 167 166 165 165 165 166 167 171 173 174 174 175 177 178 177 173 173 175 177 177 175 175 175 175 176 177 180 188 191 190 189 195 200 200 200 205 219 228 231 230 221 223 233 243 245 247 250 254 259
189 189 188 185 185 184 182 177 175 174 175 177 178 178 176 174 172 172 171 168 166 165 165 165 166 166 168 171 174 175 176 176 178 178 177 175 176 178 179 180 179 178 178 177 179 180 183 191 199 198 193 194 201 200 200 204 219 232 240 240 225 214 209 212 222 234 241 246 247
190 189 187 183 184 183 181 177 176 176 177 179 179 177 175 173 172 171 170 168 165 164 164 164 166 167 169 173 174 176 177 178 178 178 177 176 179 181 182 183 183 182 180 180 183 185 187 193 202 203 200 199 204 203 201 202 216 230 239 241 222 209 205 205 214 224 234 241 239
189 186 184 182 183 183 180 176 176 177 178 179 178 176 174 173 173 172 170 166 164 163 164 164 166 168 171 174 175 176 177 178 177 177 177 178 182 184 185 185 186 184 182 182 187 190 192 198 205 208 208 210 212 207 201 201 214 225 233 237 221 214 213 215 223 231 238 242 237
187 184 181 179 181 180 177 173 175 176 178 178 176 174 173 175 175 173 169 164 163 164 165 165 168 170 172 175 176 176 176 176 177 178 179 180 185 187 188 187 188 187 186 185 189 193 198 203 208 211 213 218 216 209 203 204 216 224 229 232 225 222 224 225 231 239 246 247 239
185 181 178 175 177 176 173 170 172 174 176 178 176 174 174 177 176 173 168 164 164 165 165 166 170 172 174 175 175 175 174 175 177 179 181 184 187 189 189 189 190 191 191 190 192 197 202 208 213 215 216 219 217 212 208 210 219 225 228 229 230 231 233 233 236 242 249 251 243
182 178 175 172 173 172 170 170 171 173 175 177 176 175 175 178 177 173 169 166 166 166 166 168 171 174 175 174 173 172 172 174 178 181 183 185 188 190 191 192 194 196 196 193 196 201 207 212 218 221 221 219 218 214 213 215 223 227 229 228 232 236 240 239 238 241 245 247 244
179 175 172 169 169 169 169 170 172 172 174 176 176 175 174 176 177 175 171 169 169 167 166 167 171 173 175 173 171 170 171 174 179 182 184 186 189 192 194 198 201 201 200 196 199 205 212 216 221 226 227 224 221 217 216 219 227 231 232 230 232 236 239 238 234 234 235 239 242
176 173 170 167 167 168 170 172 172 171 170 173 174 174 173 175 176 175 172 171 169 168 166 166 168 171 173 173 170 169 170 173 178 182 186 187 190 196 201 206 207 206 203 198 200 207 215 222 226 229 231 229 225 220 218 220 228 232 234 233 233 234 235 233 229 229 231 235 238
175 173 170 168 170 171 172 172 168 166 166 170 173 174 175 175 173 172 171 171 170 167 166 165 166 168 171 172 170 168 168 171 178 184 189 191 195 202 208 212 211 209 206 201 201 206 214 222 228 233 235 234 230 226 222 221 227 231 233 232 232 232 231 230 230 230 231 232 238
176 175 174 172 174 174 172 169 165 164 166 172 176 177 176 173 169 168 170 171 168 166 166 167 168 169 169 169 168 167 168 171 179 186 193 199 204 209 213 215 214 211 209 205 205 207 211 216 222 228 233 235 234 231 226 222 225 227 228 228 227 227 227 228 230 228 226 226 237
180 179 178 177 177 174 171 169 168 169 172 176 179 178 175 169 166 166 167 168 165 166 168 170 170 169 166 164 164 165 169 173 181 189 199 207 211 214 215 215 215 213 211 210 210 211 213 214 215 219 225 230 231 230 227 222 222 222 221 220 220 222 223 224 224 222 221 223 234
183 182 181 180 177 174 172 173 173 175 178 182 181 176 171 166 164 164 164 165 166 169 171 172 170 166 162 160 161 165 171 177 186 195 205 213 216 217 217 216 214 213 212 213 215 216 216 213 213 215 219 222 224 224 222 219 217 215 214 215 217 217 218 217 215 215 217 222 229
186 187 186 183 177 174 174 178 180 184 187 188 180 173 166 163 163 163 164 166 168 170 172 171 166 162 160 160 163 168 176 184 195 203 209 215 218 219 219 217 214 213 213 215 218 219 217 213 210 213 216 219 219 217 214 211 210 210 211 212 213 213 212 209 209 210 214 220 226
192 195 196 190 178 175 179 189 193 194 190 184 175 168 164 162 163 164 165 165 166 168 169 167 163 161 161 164 168 174 182 192 202 208 212 215 218 219 220 218 215 213 213 215 217 219 220 218 212 212 214 215 214 211 207 205 207 209 211 212 210 208 206 204 206 208 212 216 222
190 187 185 186 182 182 187 196 197 192 184 175 169 164 161 161 163 164 163 162 162 163 164 163 162 162 164 168 173 180 188 195 203 209 213 214 215 216 215 214 214 215 216 217 217 219 220 220 214 211 211 212 210 206 205 206 209 211 212 212 209 205 202 202 204 207 210 214 219
169 164 170 182 191 194 194 193 188 182 175 170 166 162 160 161 161 160 159 159 160 161 161 160 162 165 168 172 179 185 191 194 201 207 210 211 211 209 207 206 213 217 219 221 220 220 218 215 212 210 210 211 209 207 205 208 213 215 215 213 210 206 203 203 204 206 209 212 217
158 163 178 194 201 199 192 182 176 172 171 169 166 162 159 159 157 156 157 159 160 160 160 159 164 169 174 178 185 189 193 194 199 203 206 207 207 205 203 204 212 218 220 221 221 218 214 210 210 210 210 211 211 208 207 209 216 219 219 216 213 210 208 206 205 206 209 211 214
166 174 187 199 199 192 181 171 170 170 171 169 165 161 158 156 156 157 159 161 161 160 159 161 166 172 177 183 188 192 194 196 199 200 201 202 203 204 204 208 214 218 219 215 208 205 204 204 208 210 211 212 211 210 209 210 216 220 220 217 216 215 213 211 209 209 210 213 212
173 179 185 189 183 176 171 171 171 171 171 168 163 160 158 157 157 159 161 161 160 160 161 166 169 172 176 184 188 192 195 197 198 198 198 200 202 205 208 214 215 216 214 204 191 191 196 199 205 211 215 215 213 211 210 211 215 217 218 216 217 217 218 217 215 212 211 214 213
175 177 177 173 169 170 172 173 171 171 169 166 163 161 159 158 158 160 161 160 160 161 164 169 168 169 173 183 187 191 193 196 196 197 199 203 206 208 211 218 217 215 205 186 180 186 194 198 202 210 218 221 218 215 213 213 212 214 216 215 216 218 220 223 223 220 216 215 215
172 171 168 164 167 170 173 172 170 170 169 166 164 162 159 157 158 160 161 161 161 164 167 171 167 168 173 183 186 189 191 192 192 196 202 208 213 214 216 222 221 214 197 176 178 185 194 198 201 207 215 222 223 221 219 219 215 213 214 215 216 219 221 223 227 226 222 218 217
167 166 165 164 166 169 170 170 170 169 167 166 164 160 157 156 158 160 161 162 165 169 171 171 169 171 177 182 183 185 187 190 191 197 203 211 216 219 221 228 231 219 190 169 178 186 194 199 201 205 211 221 226 225 223 223 219 216 215 216 217 219 222 224 228 228 226 223 221
166 167 168 169 169 169 169 170 169 167 164 162 160 157 155 155 158 161 164 167 171 174 174 170 169 172 176 178 178 180 185 190 195 201 207 213 218 223 228 234 240 225 190 169 179 187 194 198 200 204 209 218 225 229 231 229 226 222 220 220 220 222 225 227 229 230 230 228 226
170 172 173 174 172 170 169 168 165 161 159 157 156 156 155 156 160 164 168 173 176 175 172 168 168 170 172 172 175 181 187 192 197 203 210 215 221 230 238 244 248 233 195 171 180 188 194 198 200 203 206 212 220 228 234 235 233 230 227 226 225 226 227 229 230 231 231 231 231
175 176 176 177 175 171 167 163 159 156 154 154 155 156 157 160 164 169 173 175 175 172 169 166 166 168 170 173 180 188 193 197 200 205 212 218 227 237 244 248 250 237 199 173 181 188 193 198 200 202 204 207 216 226 235 239 238 237 235 234 233 231 230 230 231 232 232 233 233
179 179 179 178 174 168 163 158 155 153 152 153 156 158 160 163 167 171 173 173 171 168 166 165 166 169 174 180 187 194 199 202 206 210 217 225 235 243 248 249 251 237 198 175 182 189 194 198 200 202 203 205 214 224 233 238 240 240 239 238 236 235 234 233 233 234 234 234 235
180 180 179 176 170 164 159 156 153 152 152 154 157 160 162 165 168 170 170 168 165 163 163 165 168 175 181 188 193 198 202 207 213 219 226 234 242 246 249 250 250 228 182 173 183 190 194 198 200 201 201 202 212 224 233 237 239 240 240 240 238 237 235 234 234 235 236 236 236
179 178 176 172 165 160 157 155 153 152 154 156 159 162 165 168 168 168 166 162 159 159 162 166 173 180 187 193 199 203 208 214 221 229 236 242 246 248 250 253 252 220 170 171 183 190 195 198 200 200 200 200 212 226 234 237 239 240 240 240 239 238 236 235 235 236 237 238 238
177 175 172 166 161 159 157 155 153 153 155 157 161 164 167 168 168 165 161 156 156 159 162 166 174 183 192 198 205 212 218 225 231 237 242 245 248 251 253 257 256 226 176 173 184 191 195 199 200 199 198 201 214 226 233 238 240 241 241 241 241 239 237 235 234 235 236 237 238
173 170 166 162 159 158 156 154 153 154 156 160 163 166 168 169 166 162 158 155 158 163 167 171 179 190 200 206 213 221 228 236 241 243 244 244 247 251 255 258 260 239 194 178 185 191 196 200 200 198 199 205 217 226 231 236 239 241 242 242 243 241 239 236 234 233 234 235 235
166 163 160 159 158 156 154 153 154 156 159 162 165 167 167 167 163 159 156 157 165 171 176 180 190 200 208 214 223 231 237 243 245 245 246 246 247 251 255 259 263 252 217 184 187 192 197 200 200 199 201 210 219 226 231 234 236 239 241 241 242 241 240 238 234 233 232 231 232
160 158 157 158 157 155 154 153 155 157 159 163 165 166 166 166 160 155 155 162 173 180 185 191 201 208 216 223 234 242 246 247 246 246 247 249 250 253 256 261 265 262 241 193 188 192 197 201 200 200 203 213 221 228 232 235 237 238 239 241 242 242 240 238 235 234 232 229 227
153 154 155 157 156 156 155 154 154 156 159 162 164 165 165 163 154 149 151 161 176 187 196 206 215 221 226 231 242 249 253 252 250 248 248 249 251 253 255 258 263 264 254 210 191 192 198 202 202 202 204 214 223 229 234 238 238 239 238 239 240 241 240 238 235 234 233 231 224
149 152 155 156 156 155 154 152 151 153 156 159 160 159 155 148 141 139 143 154 170 187 205 222 232 235 237 237 245 252 256 258 256 254 253 252 253 252 251 253 257 260 256 231 200 194 198 203 203 203 205 214 222 229 235 239 240 240 240 239 239 240 241 239 236 234 233 233 228